Showing default

ICEYE-X45, 62705

Orbit data source: Space-Track

ICEYE-X45, 62705 is a payload satellite owned by ICEYE US (US) in SSO that was launched on Tue, 14 Jan 2025 UTC via an FALCON 9 launch vehicle from the Air Force Western Test Range (AFWTR). Payload-class satellites include a variety of spacecraft equipped with specific instruments for various scientific and technological missions. These include communications satellites like Starlink; space stations such as the ISS; scientific satellites like the Hubble; Earth observation satellites from companies like Planet Labs, Umbra, and HawkEye 360; GPS; miniature CubeSats for education and research; and military/defense satellites.

Loading next visibility...
Identifier
62705, 2025-009DA
Orbit
SSO
Country
Flag of USUS
Related business
Manufacturer
ICEYE
Mission
Operational Commercial Radar Imaging
Bus & Motor
ICEYE, Unknown motor
Mass
80 kg wet, 80 kg dry
Launch date (UTC)
2025-01-14 (1 year ago)
Launch vehicle
FALCON 9
Launch site
Air Force Western Test Range (AFWTR)
Object type
Payload
Rocket body
Debris
Shape & HBR
Box + 1 Pan, 0.6 m
Radar Cross Section
0.776 m², Medium (>0.1 m² and < 1m²)

Expand to show TLE details & history
Last TLE update: 16 hours ago

TLE from 16 hours ago
0 ICEYE-X45
1 62705U 25009DA  26171.19634949  .00002266  00000-0  18314-3 0  9994
2 62705  97.8328 257.9063 0001248  94.2462 265.8904 15.00840975 78135
Epoch: 2026-06-20T04:42Z
TLE epoch observation values (Epoch: 2026-06-20T04:42:44.595Z)
Latitude
-0.00006°
Longitude
-81.19395°
Altitude
567.416 km
Speed
7.577 km/s
True Right ascension
17h 11m 37s
True Declination
0° 00' 00"
Sunlit
Object was in full shadow at epoch
Visualization orbit readout
Latitude
Unknown
Longitude
Unknown
Altitude
Unknown
Speed
Unknown
Apparent Right ascension
Unknown
Apparent Declination
Unknown
Sunlit
N/A
Visualization observer readout
Local Sidereal Time
07:23:29
Azimuth
Unknown
Elevation
Unknown
Doppler factor
Unknown
Orbital elements
Apogee altitude
562.178 km
Perigee altitude
560.446 km
Semi-major axis
6,939.449 km
Eccentricity
0.00012
Inclination
97.8328°
RAAN
257.9063°
Arg. of periapsis
94.2462°
True anomaly
265.87614°
Mean anomaly
265.8904°
Eccentric anomaly
265.88327°
Mean motion
3.75453 °/min
Orbital period
95.88 mins
BSTAR
0.00018314
Loading maneuver chart data...
Computing Atmospheric mass density...
Loading historical data...
Loading historical data...
Loading historical data...
Loading historical data...
Loading historical data...
Loading historical data...
Loading historical data...

Documentation

Showing up to 5 results
|